Simultaneous Nadir Overpasses (SNOs) Predictions

Prediction of SNOs between GOES-17 and NOAA-19 Satellite Orbit:

Table of predicted SNOs for the next 14.0 days since TLE Epoch: 5/15/2021
Index Date Time (GOES-17) GOES-17 Lat,Lon NOAA-19 Lat,Lon Distance(km) Time Diff (sec)
1 05/17/2021 04:06:08 -0.04,-137.19 -0.51,-139.11 219.61 80
2 05/18/2021 03:51:44 -0.04,-137.19 0.18,-136.25 106.95 80
3 05/19/2021 03:40:01 -0.03,-137.18 0.87,-133.39 433.38 80
4 05/20/2021 16:12:35 0.03,-137.18 0.97,-141.18 457.07 80
5 05/21/2021 16:00:51 0.03,-137.17 0.32,-138.31 130.78 80
6 05/22/2021 15:51:47 0.03,-137.16 -0.39,-135.45 195.45 80
7 05/25/2021 04:12:41 -0.03,-137.12 -0.78,-140.39 373.05 80
8 05/26/2021 04:00:57 -0.02,-137.11 -0.14,-137.52 47.90 80
9 05/27/2021 03:46:33 -0.02,-137.09 0.55,-134.66 277.17 80
